This is the latest recevied weather packets stored in our database for station/object W7TTE. If no packets are shown the sender has not sent any weather packets the latest 10 day(s).
| Time | Temp. | Humidity | Pressure | Rain* | Wind** | Luminosity | Snow |
|---|---|---|---|---|---|---|---|
| 1777947889 | 23.33° C | 42% | 1013 hPa | 0 mm | - | 0 W/m² | - |
| 1777947586 | 23.33° C | 42% | 1012.9 hPa | 0 mm | - | 1 W/m² | - |
| 1777947282 | 23.33° C | 42% | 1013.1 hPa | 0 mm | - | 1 W/m² | - |
| 1777946978 | 23.89° C | 41% | 1013.1 hPa | 0 mm | - | 3 W/m² | - |
| 1777946674 | 23.89° C | 41% | 1013 hPa | 0 mm | - | 5 W/m² | - |
| 1777946371 | 23.89° C | 41% | 1013.1 hPa | 0 mm | - | 6 W/m² | - |
| 1777946068 | 23.89° C | 41% | 1013 hPa | 0 mm | - | 8 W/m² | - |
| 1777945765 | 23.89° C | 41% | 1013.3 hPa | 0 mm | - | 11 W/m² | - |
| 1777945462 | 23.89° C | 42% | 1013 hPa | 0 mm | - | 15 W/m² | - |
| 1777945159 | 23.89° C | 42% | 1013 hPa | 0 mm | - | 18 W/m² | - |
| 1777944856 | 23.89° C | 42% | 1013 hPa | 0 mm | - | 22 W/m² | - |
| 1777944554 | 23.89° C | 42% | 1012.8 hPa | 0 mm | - | 26 W/m² | - |
| 1777944252 | 23.89° C | 42% | 1013 hPa | 0 mm | - | 27 W/m² | - |
| 1777943947 | 23.89° C | 42% | 1012.9 hPa | 0 mm | - | 36 W/m² | - |
| 1777943644 | 23.89° C | 43% | 1013.1 hPa | 0 mm | - | 45 W/m² | - |
| 1777943341 | 24.44° C | 43% | 1013.3 hPa | 0 mm | - | 53 W/m² | - |
| 1777943036 | 24.44° C | 43% | 1012.8 hPa | 0 mm | - | 59 W/m² | - |
| 1777942733 | 24.44° C | 42% | 1013.1 hPa | 0 mm | - | 73 W/m² | - |
| 1777942429 | 24.44° C | 42% | 1013.1 hPa | 0 mm | - | 65 W/m² | - |
| 1777942127 | 24.44° C | 42% | 1012.9 hPa | 0 mm | - | 60 W/m² | - |
| 1777941823 | 24.44° C | 43% | 1013 hPa | 0 mm | - | 69 W/m² | - |
| 1777941521 | 24.44° C | 42% | 1013 hPa | 0 mm | - | 77 W/m² | - |
| 1777941218 | 24.44° C | 42% | 1012.9 hPa | 0 mm | - | 101 W/m² | - |
| 1777940914 | 24.44° C | 42% | 1013.1 hPa | 0 mm | - | 108 W/m² | - |
| 1777940611 | 25° C | 42% | 1013.4 hPa | 0 mm | - | 110 W/m² | - |
* Rain latest hour (hover to see other rain measurements)
** Current wind speed in m/s (hover to see current wind gust speed)